Terminal Aerodrome Forecast
Issued by NWS Portland, OR

Home | Current Version | Previous Version | Text Only | Print | Product List | Glossary On
Versions: 1 2 3 4 5 6 7 8 9 10 11 12 13 14 15 16 17 18 19 20 21 22 23 24 25 26 27 28 29 30 31 32 33 34 35 36 37 38 39 40 41 42 43 44 45 46 47 48 49 50
000
FTUS46 KPQR 221137
TAFPDX
TAF
KPDX 221137Z 2212/2312 32003KT P6SM SCT025 BKN045 OVC070
      TEMPO 2212/2215 BKN025 OVC045
     FM221900 36004KT P6SM SCT045 BKN070
     FM230600 00000KT P6SM BKN060 OVC100
     FM230900 00000KT 5SM BR SCT010 OVC060=

USA.gov is the U.S. government's official web portal to all federal, state and local government web resources and services.